Hourly Data Report for April 22, 2017

TORONTO CITY
ONTARIO

43°40'00.000" N
79°24'00.000" W
112.50 m
6158355
71508
XTO

Download Data

Hourly Data (April 2017)
Hourly Data Report for April 22, 2017
TIME
LST
Temp Definition
°C
Dew Point Definition
°C
Rel Hum Definition
%
Precip. Amount Definition
mm

Wind Dir Definition
10's deg

Wind Spd Definition
km/h
Visibility Definition
km
Stn Press Definition
kPa
Hmdx Definition


Wind Chill Definition


Weather Definition


00:00 7.1 2.0 70 0.0 LegendMM LegendMM   100.25     LegendNANA
01:00 6.8 1.9 71 0.0 LegendMM LegendMM   100.21     LegendNANA
02:00 6.5 2.0 73 0.0 LegendMM LegendMM   100.18     LegendNANA
03:00 6.1 2.7 79 0.0 LegendMM LegendMM   100.22     LegendNANA
04:00 5.8 1.3 73 0.0 LegendMM LegendMM   100.22     LegendNANA
05:00 5.6 0.9 72 0.0 LegendMM LegendMM   100.29     LegendNANA
06:00 5.2 0.4 71 0.0 LegendMM LegendMM   100.31     LegendNANA
07:00 5.6 0.4 69 0.0 LegendMM LegendMM   100.38     LegendNANA
08:00 6.2 0.3 66 0.0 LegendMM LegendMM   100.42     LegendNANA
09:00 6.6 0.2 64 0.0 LegendMM LegendMM   100.48     LegendNANA
10:00 8.3 0.0 56 0.0 LegendMM LegendMM   100.53     LegendNANA
11:00 9.8 0.4 52 0.0 LegendMM LegendMM   100.48     LegendNANA
12:00 11.7 1.2 48 0.0 LegendMM LegendMM   100.45     LegendNANA
13:00 12.8 2.1 48 0.0 LegendMM LegendMM   100.44     LegendNANA
14:00 13.8 2.6 47 0.0 LegendMM LegendMM   100.45     LegendNANA
15:00 11.8 2.8 54 0.0 LegendMM LegendMM   100.43     LegendNANA
16:00 11.3 1.8 52 0.0 LegendMM LegendMM   100.41     LegendNANA
17:00 10.2 0.5 51 0.0 LegendMM LegendMM   100.46     LegendNANA
18:00 12.7 0.9 44 0.0 LegendMM LegendMM   100.41     LegendNANA
19:00 11.9 0.4 45 0.0 LegendMM LegendMM   100.46     LegendNANA
20:00 10.8 0.3 48 0.0 LegendMM LegendMM   100.50     LegendNANA
21:00 9.5 -1.3 47 0.0 LegendMM LegendMM   100.54     LegendNANA
22:00 9.1 -2.9 43 0.0 LegendMM LegendMM   100.55     LegendNANA
23:00 8.6 -3.6 42 0.0 LegendMM LegendMM   100.57     LegendNANA

Notes on Data Quality.

Legend

  • E = Estimated
  • M = Missing
  • NA = Not Available*
  • [empty] = Indicates an unobserved value
Date modified: